This is the latest recevied weather packets stored in our database for station/object N9GKE-1. If no packets are shown the sender has not sent any weather packets the latest 10 day(s).
| Time | Temp. | Humidity | Pressure | Rain* | Wind** | Luminosity | Snow |
|---|---|---|---|---|---|---|---|
| 1778124693 | 7.78° C | 65% | 1016 hPa | 0 mm | - | - | - |
| 1778124094 | 8.33° C | 64% | 1015.9 hPa | 0 mm | - | - | - |
| 1778123494 | 8.33° C | 65% | 1015.7 hPa | 0 mm | - | - | - |
| 1778122895 | 7.78° C | 66% | 1015.7 hPa | 0 mm | - | - | - |
| 1778122293 | 7.78° C | 67% | 1015.5 hPa | 0 mm | - | - | - |
| 1778121695 | 8.33° C | 67% | 1015.4 hPa | 0 mm | - | - | - |
| 1778121094 | 8.33° C | 66% | 1015.3 hPa | 0 mm | - | - | - |
| 1778120495 | 8.89° C | 64% | 1015.1 hPa | 0 mm | - | - | - |
| 1778119894 | 8.89° C | 64% | 1015.1 hPa | 0 mm | - | - | - |
| 1778119293 | 8.89° C | 63% | 1015 hPa | 0 mm | - | - | - |
| 1778118694 | 9.44° C | 63% | 1015 hPa | 0 mm | - | - | - |
| 1778118093 | 9.44° C | 61% | 1015 hPa | 0 mm | - | - | - |
| 1778117494 | 10° C | 58% | 1015 hPa | 0 mm | - | - | - |
| 1778116893 | 10.56° C | 57% | 1014.9 hPa | 0 mm | - | - | - |
| 1778116296 | 10.56° C | 56% | 1014.8 hPa | 0 mm | - | - | - |
| 1778115695 | 11.11° C | 55% | 1014.7 hPa | 0 mm | - | - | - |
| 1778115096 | 11.67° C | 54% | 1014.8 hPa | 0 mm | - | - | - |
| 1778114495 | 11.67° C | 53% | 1014.6 hPa | 0 mm | - | - | - |
| 1778113896 | 12.22° C | 51% | 1014.6 hPa | 0 mm | - | - | - |
| 1778113295 | 12.22° C | 50% | 1014.5 hPa | 0 mm | - | - | - |
| 1778112695 | 12.78° C | 50% | 1014.3 hPa | 0 mm | - | - | - |
| 1778112095 | 12.78° C | 49% | 1014.1 hPa | 0 mm | - | - | - |
| 1778111495 | 12.78° C | 49% | 1014.1 hPa | 0 mm | - | - | - |
| 1778110896 | 13.33° C | 48% | 1014 hPa | 0 mm | - | - | - |
| 1778110294 | 13.33° C | 48% | 1014 hPa | 0 mm | - | - | - |
* Rain latest hour (hover to see other rain measurements)
** Current wind speed in m/s (hover to see current wind gust speed)